Weather History for Eastover, SC

Change the Weather History Date:

Friday, January 24, 2014

  Actual Average Record
Temperature  
Mean Temperature 23 °F -  
Max Temperature 32 °F 53 °F 77 °F (2002)
Min Temperature 13 °F 34 °F 12 °F (2005)
Degree Days  
Heating Degree Days 42    
Moisture  
Dew Point -2 °F    
Average Humidity 35    
Maximum Humidity 77    
Minimum Humidity 14    
Precipitation  
Precipitation 0.00 in - - ()
Sea Level Pressure  
Sea Level Pressure 30.50 in    
Wind  
Wind Speed 8 mph (North)    
Max Wind Speed 14 mph    
Max Gust Speed 20 mph    
Visibility 10 miles    
Events      
Averages and records for this station are not official NWS values.
T = Trace of Precipitation, MM = Missing Value Source: NWS Daily Summary

Daily Weather History Graph

Daily Weather History Graph

Search for Another Location

Airport:

Trip Planner

Search our weather history database for the weather conditions in past years. The results will help you decide how hot, cold, wet, or windy it might be!

Date:

Astronomy

Jan. 24, 2014 Rise Set
Actual Time 7:24 AM EST 5:46 PM EST
Civil Twilight 6:58 AM EST 6:12 PM EST
Nautical Twilight 6:28 AM EST 6:42 PM EST
Astronomical Twilight 5:58 AM EST 7:12 PM EST
Moon 12:54 AM EST (1/24) 12:00 PM EST (1/24)
Length of Visible Light 11h 14m
Length of Day
10h 21m
Last Quarter, 45% of the Moon is Illuminated
Jan 24
Last Quarter
Jan 30
New
Feb 6
First Quarter
Feb 14
Full
Feb 22
Last Quarter

Hourly Weather History & Observations

Time (EST) Temp. Windchill Dew Point Humidity Pressure Visibility Wind Dir Wind Speed Gust Speed Precip Events Conditions
12:58 AM 29.8 °F 21.5 °F 7.3 °F 39% 30.43 in 10.0 mi North 9.2 mph - N/A   Scattered Clouds
1:58 AM 30.0 °F 22.4 °F 6.3 °F 37% 30.45 in 10.0 mi North 8.1 mph - N/A   Mostly Cloudy
2:58 AM 29.3 °F 20.2 °F 1.9 °F 31% 30.49 in 10.0 mi North 10.4 mph - N/A   Overcast
3:58 AM 28.8 °F 21.7 °F 1.0 °F 31% 30.51 in 10.0 mi North 6.9 mph - N/A   Overcast
4:58 AM 25.9 °F 15.3 °F 0.5 °F 33% 30.53 in 10.0 mi NNW 11.5 mph - N/A   Scattered Clouds
5:58 AM 24.3 °F 12.2 °F -0.9 °F 34% 30.56 in 10.0 mi North 13.8 mph - N/A   Partly Cloudy
6:58 AM 21.9 °F 9.2 °F -0.4 °F 38% 30.60 in 10.0 mi North 13.8 mph 19.6 mph N/A   Partly Cloudy
7:58 AM 20.5 °F 8.6 °F -3.8 °F 34% 30.63 in 10.0 mi North 11.5 mph - N/A   Partly Cloudy
8:58 AM 21.7 °F 10.2 °F -5.1 °F 31% 30.64 in 10.0 mi NNE 11.5 mph - N/A   Partly Cloudy
9:58 AM 23.2 °F 12.0 °F -7.2 °F 26% 30.65 in 10.0 mi North 11.5 mph - N/A   Partly Cloudy
10:58 AM 25.2 °F 15.7 °F -7.4 °F 24% 30.64 in 10.0 mi NNE 9.2 mph - N/A   Partly Cloudy
11:58 AM 26.8 °F 16.5 °F -9.9 °F 20% 30.61 in 10.0 mi NNW 11.5 mph - N/A   Partly Cloudy
12:58 PM 28.8 °F 20.2 °F -10.5 °F 18% 30.56 in 10.0 mi NW 9.2 mph - N/A   Partly Cloudy
1:58 PM 32.0 °F 25.6 °F -11.2 °F 15% 30.53 in 10.0 mi West 6.9 mph - N/A   Clear
2:58 PM 31.1 °F 24.5 °F -11.4 °F 16% 30.49 in 10.0 mi Variable 6.9 mph - N/A   Clear
3:58 PM 31.6 °F 27.0 °F -12.6 °F 14% 30.47 in 10.0 mi West 4.6 mph - N/A   Clear
4:58 PM 30.9 °F 25.2 °F -10.8 °F 16% 30.45 in 10.0 mi North 5.8 mph - N/A   Clear
5:58 PM 28.4 °F 24.6 °F -7.8 °F 21% 30.43 in 10.0 mi SE 3.5 mph - N/A   Clear
6:58 PM 23.9 °F - 4.6 °F 44% 30.43 in 10.0 mi SE 1.2 mph - N/A   Clear
7:58 PM 21.0 °F - -3.6 °F 34% 30.42 in 10.0 mi Calm Calm - N/A   Clear
8:58 PM 18.7 °F - 8.1 °F 63% 30.41 in 10.0 mi East 1.2 mph - N/A   Clear
9:58 PM 16.7 °F - 8.8 °F 71% 30.39 in 10.0 mi Calm Calm - N/A   Clear
10:58 PM 14.0 °F - 7.9 °F 77% 30.38 in 10.0 mi Calm Calm - N/A   Clear
11:58 PM 13.6 °F 7.7 °F 6.3 °F 72% 30.34 in 10.0 mi SE 3.5 mph - N/A   Clear